TimeCST,TemperatureF,Dew PointF,Humidity,Sea Level PressureIn,VisibilityMPH,Wind Direction,Wind SpeedMPH,Gust SpeedMPH,PrecipitationIn,Events,Conditions,WindDirDegrees,DateUTC
12:53 AM,34.0,27.0,75,30.25,6.0,South,4.6,-,0.02,Rain,Rain,180,2012-12-31 06:53:00
1:53 AM,33.1,30.0,89,30.24,10.0,South,4.6,-,0.06,Rain,Light Rain,180,2012-12-31 07:53:00
2:53 AM,34.0,30.9,89,30.22,9.0,Calm,Calm,-,0.04,Rain,Light Rain,0,2012-12-31 08:53:00
3:16 AM,33.8,30.2,87,30.19,9.0,Calm,Calm,-,0.01,Rain,Light Rain,0,2012-12-31 09:16:00
3:53 AM,34.0,30.0,85,30.22,8.0,South,9.2,-,0.02,Rain,Light Rain,190,2012-12-31 09:53:00
4:53 AM,33.1,30.9,92,30.21,6.0,South,8.1,-,0.04,Rain,Light Rain,180,2012-12-31 10:53:00
5:53 AM,33.1,30.9,92,30.19,5.0,South,4.6,-,0.07,Rain,Light Rain,180,2012-12-31 11:53:00
6:53 AM,34.0,32.0,92,30.17,7.0,Calm,Calm,-,0.06,Rain,Light Rain,0,2012-12-31 12:53:00
7:53 AM,34.0,32.0,92,30.14,6.0,East,4.6,-,0.04,Rain,Light Rain,80,2012-12-31 13:53:00
8:53 AM,34.0,33.1,96,30.15,2.5,East,4.6,-,0.09,Rain,Light Rain,90,2012-12-31 14:53:00
9:00 AM,33.8,33.8,100,30.12,3.0,ENE,5.8,-,0.01,Rain,Light Rain,70,2012-12-31 15:00:00
9:16 AM,33.8,33.8,100,30.11,3.0,ENE,3.5,-,0.02,Rain,Light Rain,70,2012-12-31 15:16:00
9:46 AM,33.8,33.8,100,30.11,4.0,ENE,4.6,-,0.05,Rain,Light Rain,60,2012-12-31 15:46:00
9:53 AM,34.0,33.1,96,30.14,5.0,ENE,4.6,-,0.06,Rain,Light Rain,70,2012-12-31 15:53:00
10:26 AM,33.8,33.8,100,30.13,2.0,Calm,Calm,-,0.08,Rain,Heavy Rain,0,2012-12-31 16:26:00
10:33 AM,33.8,33.8,100,30.13,1.8,Calm,Calm,-,0.11,Rain,Heavy Rain,0,2012-12-31 16:33:00
10:53 AM,35.1,33.1,92,30.16,3.0,Calm,Calm,-,0.15,Rain,Rain,0,2012-12-31 16:53:00
11:53 AM,35.1,34.0,96,30.09,4.0,ENE,4.6,-,0.07,Rain,Light Rain,70,2012-12-31 17:53:00
12:53 PM,35.1,34.0,96,30.08,2.0,Calm,Calm,-,0.09,Rain,Light Rain,0,2012-12-31 18:53:00
1:43 PM,35.6,35.6,100,30.02,2.5,East,4.6,-,0.05,Rain,Light Rain,90,2012-12-31 19:43:00
1:53 PM,36.0,36.0,100,30.04,1.8,East,3.5,-,0.06,Rain,Light Rain,100,2012-12-31 19:53:00
2:01 PM,35.6,35.6,100,30.01,2.0,East,4.6,-,0.00,Rain,Light Rain,100,2012-12-31 20:01:00
2:11 PM,35.6,35.6,100,30.00,4.0,ESE,3.5,-,0.01,Rain,Light Rain,110,2012-12-31 20:11:00
2:27 PM,37.4,35.6,93,29.99,6.0,East,3.5,-,0.01,,Overcast,90,2012-12-31 20:27:00
2:53 PM,37.0,36.0,96,30.01,3.0,Calm,Calm,-,0.01,,Overcast,0,2012-12-31 20:53:00
3:02 PM,37.4,35.6,93,29.98,2.5,ENE,3.5,-,0.00,,Overcast,70,2012-12-31 21:02:00
3:09 PM,37.4,35.6,93,29.98,4.0,East,3.5,-,0.00,,Overcast,80,2012-12-31 21:09:00
3:36 PM,37.4,35.6,93,29.98,4.0,Calm,Calm,-,0.00,,Overcast,0,2012-12-31 21:36:00
3:53 PM,37.0,36.0,96,30.00,6.0,Calm,Calm,-,0.00,,Overcast,0,2012-12-31 21:53:00
4:06 PM,37.4,35.6,93,29.98,9.0,Calm,Calm,-,N/A,,Overcast,0,2012-12-31 22:06:00
4:17 PM,37.4,35.6,93,29.98,10.0,Calm,Calm,-,N/A,,Overcast,0,2012-12-31 22:17:00
4:53 PM,37.0,36.0,96,30.01,9.0,Calm,Calm,-,N/A,,Overcast,0,2012-12-31 22:53:00
5:39 PM,37.4,37.4,100,29.99,8.0,South,3.5,-,N/A,,Overcast,190,2012-12-31 23:39:00
5:53 PM,37.9,37.0,97,30.01,7.0,South,4.6,-,N/A,,Overcast,180,2012-12-31 23:53:00
6:53 PM,37.9,37.0,97,30.01,10.0,South,3.5,-,N/A,,Overcast,190,2013-01-01 00:53:00
7:53 PM,37.9,37.0,97,30.02,8.0,Calm,Calm,-,N/A,,Overcast,0,2013-01-01 01:53:00
8:53 PM,37.0,37.0,100,30.04,6.0,Calm,Calm,-,N/A,,Overcast,0,2013-01-01 02:53:00
9:17 PM,37.4,37.4,100,30.01,2.0,Calm,Calm,-,N/A,,Overcast,0,2013-01-01 03:17:00
9:46 PM,37.4,37.4,100,30.02,1.8,SW,3.5,-,N/A,,Overcast,220,2013-01-01 03:46:00
9:53 PM,37.4,37.4,100,30.03,1.8,SW,3.5,-,N/A,,Overcast,230,2013-01-01 03:53:00
10:51 PM,37.4,37.4,100,30.04,0.8,NW,3.5,-,N/A,,Mist,310,2013-01-01 04:51:00
10:53 PM,37.0,37.0,100,30.06,0.8,NW,4.6,-,N/A,,Mist,310,2013-01-01 04:53:00
11:53 PM,37.0,37.0,100,30.07,1.2,WNW,4.6,-,N/A,,Overcast,300,2013-01-01 05:53:00